| time (UTC) | temp C | wind direction | speed KPH | gust KPH | rain 1hr cm | rain 24hr cm | rain mn cm | humidity % | barometer mb |
| 20260906223542 | 33 | 201 | 0.0 | 8.0 | 0.00 | 0.00 | 0.00 | 35 | 1015.4 |
| 20260906223020 | 33 | 197 | 0.0 | 8.0 | 0.00 | 0.00 | 0.00 | 33 | 1015.4 |
| 20260906222900 | 33 | 261 | 0.0 | 8.0 | 0.00 | 0.00 | 0.00 | 33 | 1015.4 |
| 20260906222441 | 33 | 231 | 0.0 | 16.1 | 0.00 | 0.00 | 0.00 | 33 | 1015.4 |
| 20260906222433 | 33 | 228 | 0.0 | 16.1 | 0.00 | 0.00 | 0.00 | 34 | 1015.4 |
| 20260906221840 | 33 | 172 | 0.0 | 16.1 | 0.00 | 0.00 | 0.00 | 35 | 1015.4 |
| 20260906221342 | 33 | 245 | 3.2 | 8.0 | 0.00 | 0.00 | 0.00 | 33 | 1015.4 |
| 20260906220817 | 33 | 221 | 1.6 | 8.0 | 0.00 | 0.00 | 0.00 | 34 | 1015.8 |
| 20260906220252 | 33 | 204 | 0.0 | 8.0 | 0.00 | 0.00 | 0.00 | 34 | 1015.8 |
| 20260906215742 | 33 | 303 | 6.4 | 8.0 | 0.00 | 0.00 | 0.00 | 34 | 1015.8 |
| 20260906215231 | 33 | 240 | 4.8 | 8.0 | 0.00 | 0.00 | 0.00 | 34 | 1015.8 |
| 20260906214708 | 32 | 279 | 0.0 | 12.9 | 0.00 | 0.00 | 0.00 | 34 | 1015.8 |
| 20260906214347 | 32 | 192 | 0.0 | 12.9 | 0.00 | 0.00 | 0.00 | 36 | 1016.2 |
| 20260906213622 | 33 | 75 | 4.8 | 12.9 | 0.00 | 0.00 | 0.00 | 35 | 1015.8 |
| 20260906213552 | 33 | 74 | 6.4 | 12.9 | 0.00 | 0.00 | 0.00 | 34 | 1016.2 |
| 20260906213028 | 33 | 224 | 0.0 | 12.9 | 0.00 | 0.00 | 0.00 | 36 | 1016.2 |
| 20260906212600 | 33 | 236 | 0.0 | 8.0 | 0.00 | 0.00 | 0.00 | 35 | 1016.2 |
| 20260906212443 | 33 | 251 | 3.2 | 8.0 | 0.00 | 0.00 | 0.00 | 35 | 1016.2 |
| 20260906211941 | 33 | 202 | 0.0 | 12.9 | 0.00 | 0.00 | 0.00 | 34 | 1016.2 |
| 20260906211539 | 33 | 121 | 3.2 | 12.9 | 0.00 | 0.00 | 0.00 | 37 | 1016.7 |
| 20260906211416 | 33 | 336 | 3.2 | 12.9 | 0.00 | 0.00 | 0.00 | 36 | 1016.2 |
| 20260906210852 | 33 | 81 | 3.2 | 12.9 | 0.00 | 0.00 | 0.00 | 35 | 1016.2 |
| 20260906210517 | 33 | 152 | 1.6 | 12.9 | 0.00 | 0.00 | 0.00 | 36 | 1016.2 |
| 20260906210342 | 33 | 85 | 6.4 | 12.9 | 0.00 | 0.00 | 0.00 | 35 | 1016.7 |
| 20260906210333 | 33 | 89 | 4.8 | 16.1 | 0.00 | 0.00 | 0.00 | 36 | 1016.7 |
| 20260906205809 | 32 | 277 | 4.8 | 16.1 | 0.00 | 0.00 | 0.00 | 36 | 1016.7 |
| 20260906205429 | 32 | 253 | 1.6 | 16.1 | 0.00 | 0.00 | 0.00 | 35 | 1016.7 |
| 20260906204717 | 32 | 184 | 0.0 | 12.9 | 0.00 | 0.00 | 0.00 | 36 | 1016.7 |
| 20260906204342 | 32 | 270 | 3.2 | 12.9 | 0.00 | 0.00 | 0.00 | 37 | 1016.7 |
| 20260906204152 | 32 | 292 | 1.6 | 12.9 | 0.00 | 0.00 | 0.00 | 36 | 1016.7 |
| 20260906203628 | 32 | 79 | 4.8 | 12.9 | 0.00 | 0.00 | 0.00 | 37 | 1016.7 |
| 20260906203321 | 32 | 38 | 3.2 | 8.0 | 0.00 | 0.00 | 0.00 | 36 | 1016.7 |
| 20260906203104 | 32 | 234 | 1.6 | 8.0 | 0.00 | 0.00 | 0.00 | 35 | 1017.0 |
| 20260906202542 | 32 | 261 | 1.6 | 8.0 | 0.00 | 0.00 | 0.00 | 36 | 1017.0 |
| 20260906202300 | 32 | 252 | 3.2 | 12.9 | 0.00 | 0.00 | 0.00 | 36 | 1017.0 |
| 20260906202016 | 31 | 276 | 0.0 | 12.9 | 0.00 | 0.00 | 0.00 | 36 | 1016.7 |
| 20260906201723 | 31 | 287 | 1.6 | 8.0 | 0.00 | 0.00 | 0.00 | 38 | 1017.0 |
| 20260906201244 | 31 | 271 | 3.2 | 8.0 | 0.00 | 0.00 | 0.00 | 37 | 1017.0 |
| 20260906200941 | 31 | 86 | 6.4 | 8.0 | 0.00 | 0.00 | 0.00 | 37 | 1017.0 |
| 20260906200431 | 31 | 205 | 0.0 | 8.0 | 0.00 | 0.00 | 0.00 | 37 | 1017.0 |
| 20260906200217 | 31 | 115 | 0.0 | 12.9 | 0.00 | 0.00 | 0.00 | 37 | 1017.4 |
| 20260906195841 | 31 | 240 | 3.2 | 12.9 | 0.00 | 0.00 | 0.00 | 38 | 1017.0 |
| 20260906195316 | 31 | 219 | 3.2 | 8.0 | 0.00 | 0.00 | 0.00 | 39 | 1017.4 |
| 20260906195142 | 31 | 219 | 1.6 | 8.0 | 0.00 | 0.00 | 0.00 | 39 | 1017.0 |
| 20260906194752 | 31 | 124 | 3.2 | 8.0 | 0.00 | 0.00 | 0.00 | 38 | 1017.4 |
| 20260906194228 | 31 | 16 | 6.4 | 8.0 | 0.00 | 0.00 | 0.00 | 38 | 1017.4 |
| 20260906194136 | 31 | 125 | 1.6 | 8.0 | 0.00 | 0.00 | 0.00 | 38 | 1017.4 |
| 20260906193704 | 31 | 184 | 1.6 | 12.9 | 0.00 | 0.00 | 0.00 | 40 | 1017.4 |
| 20260906193142 | 31 | 68 | 9.7 | 12.9 | 0.00 | 0.00 | 0.00 | 39 | 1017.4 |
| 20260906193114 | 31 | 71 | 4.8 | 8.0 | 0.00 | 0.00 | 0.00 | 40 | 1017.4 |
| 20260906192616 | 30 | 261 | 3.2 | 8.0 | 0.00 | 0.00 | 0.00 | 38 | 1017.4 |
| 20260906192053 | 30 | 170 | 0.0 | 8.0 | 0.00 | 0.00 | 0.00 | 39 | 1017.4 |
| 20260906191541 | 30 | 261 | 3.2 | 8.0 | 0.00 | 0.00 | 0.00 | 40 | 1017.8 |
| 20260906191032 | 30 | 83 | 0.0 | 12.9 | 0.00 | 0.00 | 0.00 | 41 | 1017.4 |
| 20260906190507 | 29 | 68 | 3.2 | 12.9 | 0.00 | 0.00 | 0.00 | 43 | 1017.8 |
| 20260906185942 | 29 | 78 | 6.4 | 12.9 | 0.00 | 0.00 | 0.00 | 43 | 1017.8 |
| 20260906185916 | 29 | 67 | 8.0 | 12.9 | 0.00 | 0.00 | 0.00 | 44 | 1017.8 |
| 20260906185352 | 29 | 165 | 1.6 | 12.9 | 0.00 | 0.00 | 0.00 | 45 | 1017.8 |
| 20260906184924 | 29 | 95 | 3.2 | 8.0 | 0.00 | 0.00 | 0.00 | 45 | 1018.2 |
| 20260906184841 | 29 | 62 | 1.6 | 8.0 | 0.00 | 0.00 | 0.00 | 46 | 1018.2 |
| 20260906184332 | 29 | 73 | 3.2 | 8.0 | 0.00 | 0.00 | 0.00 | 46 | 1018.7 |
| 20260906183922 | 29 | 76 | 4.8 | 8.0 | 0.00 | 0.00 | 0.00 | 47 | 1018.7 |
| 20260906183808 | 29 | 86 | 6.4 | 8.0 | 0.00 | 0.00 | 0.00 | 45 | 1018.7 |
| 20260906183447 | 28 | 187 | 0.0 | 8.0 | 0.00 | 0.00 | 0.00 | 45 | 1018.7 |
| 20260906182908 | 28 | 160 | 0.0 | 8.0 | 0.00 | 0.00 | 0.00 | 47 | 1018.7 |
| 20260906182651 | 28 | 100 | 3.2 | 8.0 | 0.00 | 0.00 | 0.00 | 46 | 1018.7 |
| 20260906182142 | 28 | 83 | 3.2 | 8.0 | 0.00 | 0.00 | 0.00 | 45 | 1019.0 |
| 20260906181821 | 28 | 174 | 0.0 | 8.0 | 0.00 | 0.00 | 0.00 | 48 | 1018.7 |
| 20260906181631 | 28 | 197 | 0.0 | 8.0 | 0.00 | 0.00 | 0.00 | 47 | 1018.7 |
| 20260906181107 | 28 | 89 | 6.4 | 8.0 | 0.00 | 0.00 | 0.00 | 47 | 1018.7 |
| 20260906180800 | 28 | 119 | 4.8 | 8.0 | 0.00 | 0.00 | 0.00 | 44 | 1018.7 |
| 20260906180516 | 28 | 232 | 1.6 | 8.0 | 0.00 | 0.00 | 0.00 | 45 | 1019.0 |
| 20260906175952 | 28 | 74 | 0.0 | 8.0 | 0.00 | 0.00 | 0.00 | 45 | 1019.0 |
| 20260906175739 | 28 | 272 | 1.6 | 8.0 | 0.00 | 0.00 | 0.00 | 44 | 1019.0 |
| 20260906175428 | 28 | 76 | 3.2 | 8.0 | 0.00 | 0.00 | 0.00 | 44 | 1019.0 |
| 20260906174904 | 28 | 153 | 0.0 | 8.0 | 0.00 | 0.00 | 0.00 | 44 | 1019.4 |
| 20260906174716 | 28 | 71 | 4.8 | 12.9 | 0.00 | 0.00 | 0.00 | 46 | 1019.4 |
| 20260906174341 | 27 | 192 | 0.0 | 12.9 | 0.00 | 0.00 | 0.00 | 46 | 1019.4 |
| 20260906174047 | 27 | 129 | 0.0 | 8.0 | 0.00 | 0.00 | 0.00 | 47 | 1019.8 |
| 20260906173642 | 27 | 117 | 1.6 | 8.0 | 0.00 | 0.00 | 0.00 | 47 | 1019.8 |
| 20260906173252 | 27 | 135 | 1.6 | 8.0 | 0.00 | 0.00 | 0.00 | 44 | 1019.8 |
| 20260906172741 | 27 | 144 | 3.2 | 8.0 | 0.00 | 0.00 | 0.00 | 49 | 1019.8 |
| 20260906172635 | 27 | 55 | 4.8 | 8.0 | 0.00 | 0.00 | 0.00 | 49 | 1019.8 |
| 20260906172231 | 27 | 160 | 1.6 | 8.0 | 0.00 | 0.00 | 0.00 | 49 | 1019.8 |
| 20260906171707 | 27 | 90 | 3.2 | 8.0 | 0.00 | 0.00 | 0.00 | 50 | 1019.8 |
| 20260906171615 | 27 | 6 | 1.6 | 8.0 | 0.00 | 0.00 | 0.00 | 49 | 1019.8 |
| 20260906171116 | 27 | 86 | 4.8 | 8.0 | 0.00 | 0.00 | 0.00 | 51 | 1019.8 |
| 20260906170553 | 27 | 196 | 3.2 | 8.0 | 0.00 | 0.00 | 0.00 | 53 | 1020.2 |
| 20260906170041 | 27 | 78 | 8.0 | 8.0 | 0.00 | 0.00 | 0.00 | 53 | 1020.2 |
| 20260906165804 | 26 | 67 | 1.6 | 3.2 | 0.00 | 0.00 | 0.00 | 51 | 1020.2 |
| 20260906165637 | 26 | 67 | 1.6 | 3.2 | 0.00 | 0.00 | 0.00 | 51 | 1020.2 |
| 20260906165007 | 26 | 337 | 0.0 | 3.2 | 0.00 | 0.00 | 0.00 | 51 | 1020.5 |
| 20260906164511 | 25 | 89 | 0.0 | 8.0 | 0.00 | 0.00 | 0.00 | 50 | 1020.2 |
| 20260906164416 | 25 | 93 | 0.0 | 8.0 | 0.00 | 0.00 | 0.00 | 50 | 1020.2 |
| 20260906163852 | 25 | 88 | 0.0 | 8.0 | 0.00 | 0.00 | 0.00 | 48 | 1020.2 |
| 20260906163451 | 25 | 215 | 3.2 | 8.0 | 0.00 | 0.00 | 0.00 | 52 | 1020.5 |
| 20260906163341 | 25 | 107 | 0.0 | 8.0 | 0.00 | 0.00 | 0.00 | 53 | 1020.2 |
| 20260906163102 | 24 | 194 | 0.0 | 8.0 | 0.00 | 0.00 | 0.00 | 58 | 1020.2 |
| 20260906162442 | 24 | 228 | 0.0 | 8.0 | 0.00 | 0.00 | 0.00 | 58 | 1020.2 |
| 20260906162307 | 24 | 167 | 0.0 | 8.0 | 0.00 | 0.00 | 0.00 | 60 | 1019.8 |
| 20260906161716 | 25 | 97 | 0.0 | 3.2 | 0.00 | 0.00 | 0.00 | 61 | 1020.2 |
| 20260906161435 | 25 | 163 | 0.0 | 3.2 | 0.00 | 0.00 | 0.00 | 61 | 1020.2 |
| 20260906161152 | 25 | 169 | 0.0 | 3.2 | 0.00 | 0.00 | 0.00 | 62 | 1020.2 |
| 20260906160859 | 25 | 246 | 0.0 | 8.0 | 0.00 | 0.00 | 0.00 | 59 | 1020.2 |
| 20260906160415 | 25 | 219 | 0.0 | 8.0 | 0.00 | 0.00 | 0.00 | 60 | 1020.2 |
| 20260906160105 | 24 | 217 | 1.6 | 8.0 | 0.00 | 0.00 | 0.00 | 56 | 1020.2 |
| 20260906155542 | 24 | 148 | 0.0 | 8.0 | 0.00 | 0.00 | 0.00 | 60 | 1020.2 |
| 20260906155353 | 24 | 68 | 1.6 | 8.0 | 0.00 | 0.00 | 0.00 | 60 | 1020.2 |
| 20260906155016 | 23 | 94 | 0.0 | 8.0 | 0.00 | 0.00 | 0.00 | 60 | 1020.2 |
| 20260906154452 | 23 | 73 | 0.0 | 3.2 | 0.00 | 0.00 | 0.00 | 60 | 1020.2 |
| 20260906154305 | 23 | 200 | 0.0 | 3.2 | 0.00 | 0.00 | 0.00 | 61 | 1020.2 |
| 20260906153941 | 23 | 111 | 1.6 | 3.2 | 0.00 | 0.00 | 0.00 | 61 | 1020.5 |
| 20260906153431 | 23 | 254 | 0.0 | 3.2 | 0.00 | 0.00 | 0.00 | 62 | 1020.2 |
| 20260906153217 | 23 | 88 | 3.2 | 3.2 | 0.00 | 0.00 | 0.00 | 62 | 1020.2 |
| 20260906152907 | 23 | 250 | 1.6 | 3.2 | 0.00 | 0.00 | 0.00 | 62 | 1020.2 |
| 20260906152316 | 22 | 225 | 0.0 | 3.2 | 0.00 | 0.00 | 0.00 | 65 | 1020.2 |
| 20260906152254 | 22 | 243 | 0.0 | 3.2 | 0.00 | 0.00 | 0.00 | 64 | 1020.2 |
| 20260906152142 | 22 | 212 | 0.0 | 3.2 | 0.00 | 0.00 | 0.00 | 64 | 1020.2 |
| 20260906151241 | 22 | 187 | 1.6 | 3.2 | 0.00 | 0.00 | 0.00 | 65 | 1020.2 |
| 20260906151108 | 22 | 179 | 0.0 | 3.2 | 0.00 | 0.00 | 0.00 | 66 | 1020.5 |
| 20260906150732 | 21 | 280 | 0.0 | 3.2 | 0.00 | 0.00 | 0.00 | 67 | 1020.5 |
| 20260906150207 | 21 | 296 | 3.2 | 3.2 | 0.00 | 0.00 | 0.00 | 69 | 1020.5 |
| 20260906150020 | 21 | 212 | 0.0 | 3.2 | 0.00 | 0.00 | 0.00 | 69 | 1020.2 |
| 20260906145616 | 21 | 160 | 1.6 | 3.2 | 0.00 | 0.00 | 0.00 | 68 | 1020.5 |
| 20260906145052 | 20 | 226 | 0.0 | 3.2 | 0.00 | 0.00 | 0.00 | 70 | 1020.5 |
| 20260906145000 | 20 | 208 | 0.0 | 3.2 | 0.00 | 0.00 | 0.00 | 70 | 1020.5 |
| 20260906144541 | 20 | 278 | 3.2 | 3.2 | 0.00 | 0.00 | 0.00 | 72 | 1020.5 |
| 20260906144031 | 20 | 204 | 0.0 | 3.2 | 0.00 | 0.00 | 0.00 | 75 | 1020.5 |
| 20260906143939 | 20 | 202 | 0.0 | 3.2 | 0.00 | 0.00 | 0.00 | 75 | 1020.2 |
| 20260906143507 | 20 | 193 | 0.0 | 3.2 | 0.00 | 0.00 | 0.00 | 76 | 1020.5 |
| 20260906142917 | 20 | 204 | 0.0 | 3.2 | 0.00 | 0.00 | 0.00 | 74 | 1020.5 |
| 20260906142352 | 20 | 100 | 1.6 | 3.2 | 0.00 | 0.00 | 0.00 | 74 | 1020.5 |
| 20260906142058 | 20 | 116 | 0.0 | 3.2 | 0.00 | 0.00 | 0.00 | 73 | 1020.5 |
| 20260906141933 | 20 | 242 | 0.0 | 3.2 | 0.00 | 0.00 | 0.00 | 73 | 1020.5 |
| 20260906141305 | 19 | 204 | 0.0 | 3.2 | 0.00 | 0.00 | 0.00 | 73 | 1020.2 |
| 20260906140835 | 18 | 195 | 0.0 | 3.2 | 0.00 | 0.00 | 0.00 | 75 | 1020.5 |
| 20260906140741 | 18 | 270 | 0.0 | 3.2 | 0.00 | 0.00 | 0.00 | 75 | 1020.5 |
| 20260906140216 | 18 | 230 | 0.0 | 3.2 | 0.00 | 0.00 | 0.00 | 75 | 1020.2 |
| 20260906135815 | 17 | 148 | 0.0 | 3.2 | 0.00 | 0.00 | 0.00 | 75 | 1020.2 |
| 20260906135652 | 17 | 309 | 0.0 | 3.2 | 0.00 | 0.00 | 0.00 | 76 | 1020.2 |
| 20260906135141 | 17 | 211 | 0.0 | 3.2 | 0.00 | 0.00 | 0.00 | 78 | 1020.2 |
| 20260906134753 | 16 | 274 | 1.6 | 3.2 | 0.00 | 0.00 | 0.00 | 79 | 1020.2 |
| 20260906134631 | 16 | 201 | 0.0 | 3.2 | 0.00 | 0.00 | 0.00 | 79 | 1020.2 |
| 20260906134107 | 16 | 197 | 0.0 | 3.2 | 0.00 | 0.00 | 0.00 | 83 | 1020.5 |
| 20260906133705 | 16 | 199 | 0.0 | 0.0 | 0.00 | 0.00 | 0.00 | 84 | 1020.5 |
| 20260906133516 | 16 | 195 | 0.0 | 3.2 | 0.00 | 0.00 | 0.00 | 84 | 1020.2 |
| 20260906132952 | 16 | 199 | 0.0 | 3.2 | 0.00 | 0.00 | 0.00 | 86 | 1020.2 |
| 20260906132617 | 16 | 154 | 0.0 | 3.2 | 0.00 | 0.00 | 0.00 | 87 | 1020.2 |
| 20260906132428 | 16 | 192 | 0.0 | 0.0 | 0.00 | 0.00 | 0.00 | 87 | 1020.2 |
| 20260906132135 | 15 | 188 | 0.0 | 0.0 | 0.00 | 0.00 | 0.00 | 87 | 1020.2 |
| 20260906131612 | 15 | 198 | 0.0 | 0.0 | 0.00 | 0.00 | 0.00 | 87 | 1020.2 |
| 20260906131542 | 15 | 197 | 0.0 | 0.0 | 0.00 | 0.00 | 0.00 | 87 | 1020.2 |
| 20260906130841 | 15 | 194 | 0.0 | 0.0 | 0.00 | 0.00 | 0.00 | 88 | 1020.2 |
| 20260906130515 | 15 | 212 | 0.0 | 0.0 | 0.00 | 0.00 | 0.00 | 88 | 1020.2 |
| 20260906130508 | 15 | 195 | 0.0 | 0.0 | 0.00 | 0.00 | 0.00 | 88 | 1020.2 |
| 20260906130348 | 15 | 197 | 0.0 | 0.0 | 0.00 | 0.00 | 0.00 | 88 | 1020.2 |
| 20260906125421 | 15 | 196 | 0.0 | 0.0 | 0.00 | 0.00 | 0.00 | 88 | 1020.2 |
| 20260906125231 | 15 | 196 | 0.0 | 0.0 | 0.00 | 0.00 | 0.00 | 88 | 1019.8 |
| 20260906124647 | 15 | 196 | 0.0 | 0.0 | 0.00 | 0.00 | 0.00 | 87 | 1019.8 |
| 20260906124400 | 15 | 196 | 0.0 | 0.0 | 0.00 | 0.00 | 0.00 | 87 | 1019.8 |
| 20260906124116 | 15 | 197 | 0.0 | 0.0 | 0.00 | 0.00 | 0.00 | 87 | 1019.8 |
| 20260906123824 | 15 | 196 | 0.0 | 0.0 | 0.00 | 0.00 | 0.00 | 86 | 1019.8 |
| 20260906123339 | 15 | 195 | 0.0 | 0.0 | 0.00 | 0.00 | 0.00 | 86 | 1019.8 |
| 20260906123041 | 15 | 196 | 0.0 | 0.0 | 0.00 | 0.00 | 0.00 | 86 | 1020.2 |
| 20260906122504 | 15 | 196 | 0.0 | 0.0 | 0.00 | 0.00 | 0.00 | 85 | 1019.8 |
| 20260906122317 | 15 | 196 | 0.0 | 0.0 | 0.00 | 0.00 | 0.00 | 85 | 1019.8 |
| 20260906121941 | 15 | 200 | 0.0 | 0.0 | 0.00 | 0.00 | 0.00 | 85 | 1019.8 |
| 20260906121416 | 15 | 192 | 0.0 | 0.0 | 0.00 | 0.00 | 0.00 | 84 | 1019.8 |
| 20260906121242 | 15 | 191 | 0.0 | 0.0 | 0.00 | 0.00 | 0.00 | 85 | 1019.8 |
| 20260906120851 | 15 | 198 | 0.0 | 0.0 | 0.00 | 0.00 | 0.00 | 84 | 1019.8 |
| 20260906120340 | 15 | 195 | 0.0 | 0.0 | 0.00 | 0.00 | 0.00 | 84 | 1019.8 |
| 20260906120236 | 15 | 196 | 0.0 | 0.0 | 0.00 | 0.00 | 0.00 | 84 | 1019.8 |
| 20260906115841 | 15 | 202 | 0.0 | 0.0 | 0.00 | 0.00 | 0.00 | 84 | 1019.8 |
| 20260906115307 | 15 | 196 | 0.0 | 0.0 | 0.00 | 0.00 | 0.00 | 83 | 1019.8 |
| 20260906115215 | 15 | 196 | 0.0 | 0.0 | 0.00 | 0.00 | 0.00 | 83 | 1020.2 |
| 20260906114716 | 15 | 198 | 0.0 | 0.0 | 0.00 | 0.00 | 0.00 | 82 | 1019.8 |
| 20260906114153 | 15 | 199 | 0.0 | 0.0 | 0.00 | 0.00 | 0.00 | 82 | 1019.8 |
| 20260906113628 | 15 | 195 | 0.0 | 0.0 | 0.00 | 0.00 | 0.00 | 82 | 1019.8 |
| 20260906113606 | 16 | 184 | 0.0 | 0.0 | 0.00 | 0.00 | 0.00 | 82 | 1019.8 |
| 20260906113209 | 16 | 184 | 0.0 | 0.0 | 0.00 | 0.00 | 0.00 | 82 | 1019.8 |
| 20260906112541 | 16 | 203 | 0.0 | 0.0 | 0.00 | 0.00 | 0.00 | 83 | 1019.8 |
| 20260906112016 | 16 | 198 | 0.0 | 0.0 | 0.00 | 0.00 | 0.00 | 82 | 1019.8 |
| 20260906111452 | 16 | 198 | 0.0 | 0.0 | 0.00 | 0.00 | 0.00 | 82 | 1019.8 |
| 20260906110942 | 16 | 198 | 0.0 | 0.0 | 0.00 | 0.00 | 0.00 | 81 | 1019.4 |
| 20260906110431 | 16 | 196 | 0.0 | 0.0 | 0.00 | 0.00 | 0.00 | 80 | 1019.8 |
| 20260906105907 | 16 | 195 | 0.0 | 0.0 | 0.00 | 0.00 | 0.00 | 80 | 1019.8 |
| 20260906105341 | 16 | 213 | 0.0 | 0.0 | 0.00 | 0.00 | 0.00 | 80 | 1019.8 |
| 20260906104819 | 16 | 203 | 0.0 | 0.0 | 0.00 | 0.00 | 0.00 | 80 | 1019.8 |
| 20260906104228 | 16 | 198 | 0.0 | 0.0 | 0.00 | 0.00 | 0.00 | 80 | 1019.8 |
| 20260906103759 | 16 | 193 | 0.0 | 0.0 | 0.00 | 0.00 | 0.00 | 80 | 1019.8 |
| 20260906103704 | 16 | 195 | 0.0 | 0.0 | 0.00 | 0.00 | 0.00 | 80 | 1019.8 |
| 20260906103412 | 16 | 187 | 0.0 | 0.0 | 0.00 | 0.00 | 0.00 | 80 | 1019.4 |
| 20260906102738 | 16 | 193 | 0.0 | 0.0 | 0.00 | 0.00 | 0.00 | 80 | 1019.8 |
| 20260906102616 | 16 | 195 | 0.0 | 0.0 | 0.00 | 0.00 | 0.00 | 80 | 1019.4 |
| 20260906102553 | 16 | 194 | 0.0 | 0.0 | 0.00 | 0.00 | 0.00 | 80 | 1019.8 |
| 20260906101716 | 17 | 195 | 0.0 | 0.0 | 0.00 | 0.00 | 0.00 | 80 | 1019.4 |
| 20260906101541 | 17 | 195 | 0.0 | 0.0 | 0.00 | 0.00 | 0.00 | 80 | 1019.4 |
| 20260906101031 | 17 | 198 | 0.0 | 0.0 | 0.00 | 0.00 | 0.00 | 79 | 1019.8 |
| 20260906100628 | 17 | 195 | 0.0 | 0.0 | 0.00 | 0.00 | 0.00 | 79 | 1019.4 |
| 20260906100507 | 17 | 197 | 0.0 | 0.0 | 0.00 | 0.00 | 0.00 | 79 | 1019.4 |
| 20260906095915 | 17 | 197 | 0.0 | 0.0 | 0.00 | 0.00 | 0.00 | 78 | 1019.4 |
| 20260906095623 | 17 | 204 | 0.0 | 0.0 | 0.00 | 0.00 | 0.00 | 77 | 1019.8 |
| 20260906095613 | 17 | 200 | 0.0 | 0.0 | 0.00 | 0.00 | 0.00 | 78 | 1019.8 |
| 20260906094828 | 17 | 191 | 0.0 | 0.0 | 0.00 | 0.00 | 0.00 | 77 | 1019.8 |
| 20260906094614 | 17 | 188 | 0.0 | 0.0 | 0.00 | 0.00 | 0.00 | 77 | 1019.8 |
| 20260906094304 | 17 | 191 | 0.0 | 0.0 | 0.00 | 0.00 | 0.00 | 76 | 1019.4 |
| 20260906093741 | 17 | 188 | 0.0 | 0.0 | 0.00 | 0.00 | 0.00 | 76 | 1019.8 |
| 20260906093553 | 17 | 197 | 0.0 | 0.0 | 0.00 | 0.00 | 0.00 | 75 | 1019.8 |
| 20260906093241 | 17 | 197 | 0.0 | 0.0 | 0.00 | 0.00 | 0.00 | 75 | 1019.8 |
| 20260906092652 | 18 | 213 | 0.0 | 0.0 | 0.00 | 0.00 | 0.00 | 74 | 1019.4 |
| 20260906092505 | 18 | 211 | 0.0 | 0.0 | 0.00 | 0.00 | 0.00 | 73 | 1019.4 |
| 20260906092412 | 18 | 199 | 0.0 | 0.0 | 0.00 | 0.00 | 0.00 | 73 | 1019.4 |
| 20260906091631 | 18 | 199 | 0.0 | 0.0 | 0.00 | 0.00 | 0.00 | 70 | 1019.4 |
| 20260906091417 | 18 | 199 | 0.0 | 0.0 | 0.00 | 0.00 | 0.00 | 69 | 1019.4 |
| 20260906091106 | 18 | 199 | 0.0 | 0.0 | 0.00 | 0.00 | 0.00 | 68 | 1019.4 |
| 20260906090516 | 19 | 210 | 0.0 | 3.2 | 0.00 | 0.00 | 0.00 | 67 | 1019.4 |
| 20260906090342 | 19 | 195 | 0.0 | 3.2 | 0.00 | 0.00 | 0.00 | 66 | 1019.0 |
| 20260906085952 | 19 | 186 | 0.0 | 3.2 | 0.00 | 0.00 | 0.00 | 65 | 1019.0 |
| 20260906085441 | 19 | 135 | 0.0 | 0.0 | 0.00 | 0.00 | 0.00 | 64 | 1019.4 |
| 20260906085335 | 19 | 165 | 0.0 | 0.0 | 0.00 | 0.00 | 0.00 | 64 | 1019.4 |
| 20260906084932 | 19 | 228 | 0.0 | 0.0 | 0.00 | 0.00 | 0.00 | 61 | 1019.0 |
| 20260906084406 | 20 | 211 | 0.0 | 3.2 | 0.00 | 0.00 | 0.00 | 59 | 1019.0 |
| 20260906084315 | 20 | 197 | 0.0 | 3.2 | 0.00 | 0.00 | 0.00 | 59 | 1019.0 |
| 20260906083816 | 20 | 206 | 0.0 | 3.2 | 0.00 | 0.00 | 0.00 | 57 | 1019.0 |
| 20260906083253 | 20 | 160 | 0.0 | 3.2 | 0.00 | 0.00 | 0.00 | 55 | 1018.7 |
| 20260906083012 | 20 | 161 | 0.0 | 0.0 | 0.00 | 0.00 | 0.00 | 55 | 1018.7 |
| 20260906082232 | 20 | 183 | 0.0 | 0.0 | 0.00 | 0.00 | 0.00 | 55 | 1018.7 |
| 20260906081707 | 19 | 161 | 0.0 | 3.2 | 0.00 | 0.00 | 0.00 | 54 | 1019.0 |
| 20260906081142 | 19 | 70 | 0.0 | 3.2 | 0.00 | 0.00 | 0.00 | 55 | 1018.7 |
| 20260906081116 | 19 | 200 | 0.0 | 0.0 | 0.00 | 0.00 | 0.00 | 55 | 1018.7 |
| 20260906080824 | 19 | 218 | 0.0 | 0.0 | 0.00 | 0.00 | 0.00 | 54 | 1019.0 |
| 20260906080123 | 19 | 213 | 0.0 | 0.0 | 0.00 | 0.00 | 0.00 | 54 | 1018.7 |
| 20260906080028 | 19 | 218 | 0.0 | 0.0 | 0.00 | 0.00 | 0.00 | 55 | 1018.7 |
| 20260906075504 | 19 | 210 | 0.0 | 0.0 | 0.00 | 0.00 | 0.00 | 55 | 1019.0 |
| 20260906075121 | 19 | 210 | 0.0 | 0.0 | 0.00 | 0.00 | 0.00 | 55 | 1019.0 |
| 20260906074940 | 19 | 210 | 0.0 | 0.0 | 0.00 | 0.00 | 0.00 | 55 | 1018.7 |
| 20260906074415 | 20 | 210 | 0.0 | 0.0 | 0.00 | 0.00 | 0.00 | 55 | 1018.7 |
| 20260906074108 | 20 | 210 | 0.0 | 0.0 | 0.00 | 0.00 | 0.00 | 55 | 1018.7 |
| 20260906073852 | 20 | 210 | 0.0 | 0.0 | 0.00 | 0.00 | 0.00 | 55 | 1019.0 |
| 20260906073341 | 20 | 210 | 0.0 | 0.0 | 0.00 | 0.00 | 0.00 | 55 | 1018.7 |
| 20260906073021 | 20 | 210 | 0.0 | 0.0 | 0.00 | 0.00 | 0.00 | 55 | 1019.0 |
| 20260906072831 | 20 | 210 | 0.0 | 0.0 | 0.00 | 0.00 | 0.00 | 56 | 1019.0 |
| 20260906072306 | 20 | 213 | 0.0 | 0.0 | 0.00 | 0.00 | 0.00 | 56 | 1018.7 |
| 20260906072000 | 20 | 210 | 0.0 | 0.0 | 0.00 | 0.00 | 0.00 | 56 | 1018.7 |
| 20260906071716 | 20 | 210 | 0.0 | 0.0 | 0.00 | 0.00 | 0.00 | 55 | 1018.7 |
| 20260906071151 | 20 | 209 | 0.0 | 0.0 | 0.00 | 0.00 | 0.00 | 55 | 1019.0 |
| 20260906070939 | 20 | 210 | 0.0 | 0.0 | 0.00 | 0.00 | 0.00 | 54 | 1019.0 |
| 20260906070628 | 20 | 218 | 0.0 | 0.0 | 0.00 | 0.00 | 0.00 | 54 | 1019.0 |
| 20260906070104 | 20 | 214 | 0.0 | 0.0 | 0.00 | 0.00 | 0.00 | 54 | 1019.0 |
| 20260906065916 | 20 | 214 | 0.0 | 0.0 | 0.00 | 0.00 | 0.00 | 53 | 1019.0 |
| 20260906065811 | 21 | 214 | 0.0 | 0.0 | 0.00 | 0.00 | 0.00 | 54 | 1019.0 |
| 20260906065015 | 21 | 214 | 0.0 | 0.0 | 0.00 | 0.00 | 0.00 | 52 | 1019.0 |
| 20260906064841 | 21 | 214 | 0.0 | 0.0 | 0.00 | 0.00 | 0.00 | 53 | 1019.0 |
| 20260906064722 | 21 | 215 | 0.0 | 0.0 | 0.00 | 0.00 | 0.00 | 53 | 1019.0 |
| 20260906063941 | 21 | 213 | 0.0 | 0.0 | 0.00 | 0.00 | 0.00 | 52 | 1019.4 |
| 20260906063835 | 21 | 211 | 0.0 | 0.0 | 0.00 | 0.00 | 0.00 | 52 | 1019.0 |
| 20260906063431 | 21 | 211 | 0.0 | 0.0 | 0.00 | 0.00 | 0.00 | 51 | 1019.0 |
| 20260906062847 | 22 | 211 | 0.0 | 0.0 | 0.00 | 0.00 | 0.00 | 51 | 1019.4 |
| 20260906062814 | 22 | 211 | 0.0 | 0.0 | 0.00 | 0.00 | 0.00 | 51 | 1019.4 |
| 20260906062316 | 22 | 211 | 0.0 | 0.0 | 0.00 | 0.00 | 0.00 | 50 | 1019.0 |
| 20260906061752 | 22 | 214 | 0.0 | 0.0 | 0.00 | 0.00 | 0.00 | 50 | 1019.0 |
| 20260906061228 | 22 | 200 | 0.0 | 0.0 | 0.00 | 0.00 | 0.00 | 49 | 1019.0 |
| 20260906060936 | 22 | 200 | 0.0 | 0.0 | 0.00 | 0.00 | 0.00 | 49 | 1019.0 |
| 20260906060809 | 22 | 200 | 0.0 | 0.0 | 0.00 | 0.00 | 0.00 | 49 | 1019.0 |
| 20260906060141 | 22 | 206 | 0.0 | 0.0 | 0.00 | 0.00 | 0.00 | 49 | 1019.0 |
| 20260906055616 | 22 | 211 | 0.0 | 0.0 | 0.00 | 0.00 | 0.00 | 48 | 1018.7 |
| 20260906055052 | 22 | 208 | 0.0 | 0.0 | 0.00 | 0.00 | 0.00 | 48 | 1018.7 |
| 20260906054812 | 22 | 188 | 0.0 | 0.0 | 0.00 | 0.00 | 0.00 | 47 | 1018.7 |
| 20260906054645 | 22 | 188 | 0.0 | 0.0 | 0.00 | 0.00 | 0.00 | 47 | 1018.7 |
| 20260906054303 | 22 | 209 | 0.0 | 0.0 | 0.00 | 0.00 | 0.00 | 47 | 1018.7 |
| 20260906053739 | 22 | 206 | 0.0 | 0.0 | 0.00 | 0.00 | 0.00 | 46 | 1019.0 |
| 20260906053612 | 22 | 206 | 0.0 | 0.0 | 0.00 | 0.00 | 0.00 | 46 | 1019.0 |
| 20260906052916 | 22 | 211 | 0.0 | 0.0 | 0.00 | 0.00 | 0.00 | 45 | 1019.4 |
| 20260906052623 | 22 | 209 | 0.0 | 0.0 | 0.00 | 0.00 | 0.00 | 44 | 1019.8 |
| 20260906052457 | 22 | 223 | 0.0 | 0.0 | 0.00 | 0.00 | 0.00 | 45 | 1019.8 |
| 20260906052058 | 22 | 205 | 0.0 | 3.2 | 0.00 | 0.00 | 0.00 | 45 | 1019.8 |
| 20260906051400 | 22 | 203 | 0.0 | 3.2 | 0.00 | 0.00 | 0.00 | 44 | 1019.8 |
| 20260906051304 | 22 | 196 | 0.0 | 3.2 | 0.00 | 0.00 | 0.00 | 44 | 1019.8 |
| 20260906050741 | 22 | 150 | 0.0 | 3.2 | 0.00 | 0.00 | 0.00 | 46 | 1019.8 |
| 20260906050339 | 22 | 176 | 0.0 | 0.0 | 0.00 | 0.00 | 0.00 | 47 | 1019.8 |
| 20260906050215 | 22 | 173 | 0.0 | 0.0 | 0.00 | 0.00 | 0.00 | 48 | 1019.8 |
| 20260906045651 | 21 | 186 | 0.0 | 0.0 | 0.00 | 0.00 | 0.00 | 48 | 1019.8 |
| 20260906045316 | 21 | 177 | 0.0 | 0.0 | 0.00 | 0.00 | 0.00 | 47 | 1019.0 |
| 20260906045140 | 21 | 184 | 0.0 | 0.0 | 0.00 | 0.00 | 0.00 | 48 | 1019.0 |
| 20260906044631 | 21 | 203 | 0.0 | 0.0 | 0.00 | 0.00 | 0.00 | 48 | 1019.0 |
| 20260906044242 | 21 | 203 | 0.0 | 0.0 | 0.00 | 0.00 | 0.00 | 47 | 1019.0 |
| 20260906044107 | 22 | 205 | 0.0 | 0.0 | 0.00 | 0.00 | 0.00 | 48 | 1019.0 |
| 20260906043515 | 22 | 207 | 0.0 | 0.0 | 0.00 | 0.00 | 0.00 | 48 | 1019.0 |
| 20260906043234 | 22 | 220 | 0.0 | 0.0 | 0.00 | 0.00 | 0.00 | 48 | 1018.7 |
| 20260906042951 | 22 | 215 | 0.0 | 0.0 | 0.00 | 0.00 | 0.00 | 48 | 1018.7 |
| 20260906042427 | 22 | 204 | 0.0 | 0.0 | 0.00 | 0.00 | 0.00 | 48 | 1019.0 |
| 20260906042215 | 22 | 204 | 0.0 | 0.0 | 0.00 | 0.00 | 0.00 | 48 | 1019.0 |
| 20260906042134 | 22 | 202 | 0.0 | 0.0 | 0.00 | 0.00 | 0.00 | 48 | 1018.7 |
| 20260906041341 | 22 | 205 | 0.0 | 3.2 | 0.00 | 0.00 | 0.00 | 47 | 1018.7 |
| 20260906041152 | 22 | 205 | 0.0 | 3.2 | 0.00 | 0.00 | 0.00 | 47 | 1018.7 |
| 20260906041046 | 22 | 213 | 0.0 | 3.2 | 0.00 | 0.00 | 0.00 | 46 | 1018.7 |
| 20260906040251 | 22 | 190 | 0.0 | 3.2 | 0.00 | 0.00 | 0.00 | 47 | 1018.7 |
| 20260906040104 | 22 | 83 | 1.6 | 3.2 | 0.00 | 0.00 | 0.00 | 47 | 1018.7 |
| 20260906035702 | 22 | 203 | 0.0 | 3.2 | 0.00 | 0.00 | 0.00 | 47 | 1018.7 |
| 20260906035138 | 22 | 235 | 1.6 | 3.2 | 0.00 | 0.00 | 0.00 | 47 | 1018.2 |
| 20260906035016 | 22 | 198 | 0.0 | 0.0 | 0.00 | 0.00 | 0.00 | 46 | 1018.7 |
| 20260906034613 | 22 | 201 | 0.0 | 0.0 | 0.00 | 0.00 | 0.00 | 46 | 1018.2 |
| 20260906034055 | 22 | 204 | 0.0 | 0.0 | 0.00 | 0.00 | 0.00 | 46 | 1018.2 |
| 20260906033942 | 22 | 204 | 0.0 | 0.0 | 0.00 | 0.00 | 0.00 | 46 | 1018.2 |
| 20260906033551 | 22 | 197 | 0.0 | 0.0 | 0.00 | 0.00 | 0.00 | 45 | 1018.2 |
| 20260906033259 | 22 | 193 | 0.0 | 0.0 | 0.00 | 0.00 | 0.00 | 45 | 1017.8 |
| 20260906032936 | 22 | 187 | 0.0 | 0.0 | 0.00 | 0.00 | 0.00 | 45 | 1018.2 |
| 20260906032504 | 23 | 195 | 0.0 | 0.0 | 0.00 | 0.00 | 0.00 | 45 | 1018.2 |
| 20260906031940 | 23 | 203 | 0.0 | 0.0 | 0.00 | 0.00 | 0.00 | 45 | 1018.2 |
| 20260906031913 | 23 | 203 | 0.0 | 0.0 | 0.00 | 0.00 | 0.00 | 44 | 1018.2 |
| 20260906031415 | 23 | 198 | 0.0 | 0.0 | 0.00 | 0.00 | 0.00 | 44 | 1017.8 |
| 20260906030853 | 23 | 198 | 0.0 | 0.0 | 0.00 | 0.00 | 0.00 | 43 | 1018.2 |
| 20260906030341 | 23 | 193 | 0.0 | 0.0 | 0.00 | 0.00 | 0.00 | 43 | 1017.8 |
| 20260906025832 | 23 | 197 | 0.0 | 0.0 | 0.00 | 0.00 | 0.00 | 40 | 1017.4 |
| 20260906025306 | 24 | 180 | 0.0 | 0.0 | 0.00 | 0.00 | 0.00 | 40 | 1017.4 |
| 20260906024716 | 24 | 206 | 0.0 | 0.0 | 0.00 | 0.00 | 0.00 | 41 | 1017.4 |
| 20260906024152 | 25 | 208 | 0.0 | 0.0 | 0.00 | 0.00 | 0.00 | 40 | 1017.0 |
| 20260906023723 | 25 | 206 | 0.0 | 0.0 | 0.00 | 0.00 | 0.00 | 41 | 1017.4 |
| 20260906023641 | 25 | 206 | 0.0 | 0.0 | 0.00 | 0.00 | 0.00 | 41 | 1017.0 |
| 20260906023131 | 25 | 206 | 0.0 | 0.0 | 0.00 | 0.00 | 0.00 | 40 | 1017.4 |
| 20260906022838 | 25 | 205 | 0.0 | 0.0 | 0.00 | 0.00 | 0.00 | 39 | 1017.0 |
| 20260906022722 | 25 | 206 | 0.0 | 0.0 | 0.00 | 0.00 | 0.00 | 39 | 1017.0 |
| 20260906022016 | 26 | 204 | 0.0 | 0.0 | 0.00 | 0.00 | 0.00 | 38 | 1017.0 |
| 20260906021707 | 26 | 202 | 0.0 | 0.0 | 0.00 | 0.00 | 0.00 | 37 | 1017.4 |
| 20260906021451 | 26 | 214 | 0.0 | 0.0 | 0.00 | 0.00 | 0.00 | 37 | 1017.0 |
| 20260906020940 | 26 | 228 | 0.0 | 0.0 | 0.00 | 0.00 | 0.00 | 37 | 1017.4 |
| 20260906020702 | 26 | 217 | 0.0 | 3.2 | 0.00 | 0.00 | 0.00 | 36 | 1017.4 |
| 20260906020621 | 26 | 218 | 0.0 | 3.2 | 0.00 | 0.00 | 0.00 | 36 | 1017.0 |
| 20260906015907 | 26 | 203 | 0.0 | 3.2 | 0.00 | 0.00 | 0.00 | 36 | 1017.0 |
| 20260906015559 | 26 | 253 | 0.0 | 3.2 | 0.00 | 0.00 | 0.00 | 37 | 1017.0 |
| 20260906015315 | 26 | 227 | 0.0 | 3.2 | 0.00 | 0.00 | 0.00 | 37 | 1017.0 |
| 20260906015023 | 26 | 215 | 1.6 | 3.2 | 0.00 | 0.00 | 0.00 | 37 | 1017.0 |
| 20260906014539 | 26 | 224 | 0.0 | 3.2 | 0.00 | 0.00 | 0.00 | 37 | 1017.0 |
| 20260906014227 | 26 | 222 | 0.0 | 3.2 | 0.00 | 0.00 | 0.00 | 37 | 1017.0 |
| 20260906013704 | 26 | 235 | 0.0 | 0.0 | 0.00 | 0.00 | 0.00 | 37 | 1017.0 |
| 20260906013516 | 26 | 223 | 0.0 | 0.0 | 0.00 | 0.00 | 0.00 | 37 | 1017.0 |
| 20260906013141 | 26 | 210 | 0.0 | 0.0 | 0.00 | 0.00 | 0.00 | 37 | 1016.7 |
| 20260906012616 | 27 | 210 | 0.0 | 0.0 | 0.00 | 0.00 | 0.00 | 37 | 1017.0 |
| 20260906012428 | 27 | 162 | 0.0 | 0.0 | 0.00 | 0.00 | 0.00 | 36 | 1017.0 |
| 20260906012051 | 27 | 204 | 0.0 | 0.0 | 0.00 | 0.00 | 0.00 | 37 | 1017.0 |
| 20260906011811 | 27 | 218 | 0.0 | 0.0 | 0.00 | 0.00 | 0.00 | 36 | 1017.0 |
| 20260906011341 | 27 | 201 | 0.0 | 0.0 | 0.00 | 0.00 | 0.00 | 37 | 1017.0 |
| 20260906011030 | 27 | 237 | 0.0 | 0.0 | 0.00 | 0.00 | 0.00 | 37 | 1017.0 |
| 20260906010506 | 28 | 207 | 0.0 | 3.2 | 0.00 | 0.00 | 0.00 | 36 | 1017.0 |
| 20260906010342 | 28 | 223 | 0.0 | 3.2 | 0.00 | 0.00 | 0.00 | 36 | 1017.0 |
| 20260906005941 | 28 | 220 | 0.0 | 3.2 | 0.00 | 0.00 | 0.00 | 35 | 1017.0 |
| 20260906005418 | 28 | 213 | 0.0 | 0.0 | 0.00 | 0.00 | 0.00 | 34 | 1017.0 |
| 20260906005326 | 28 | 209 | 0.0 | 3.2 | 0.00 | 0.00 | 0.00 | 35 | 1017.0 |
| 20260906004828 | 28 | 204 | 0.0 | 3.2 | 0.00 | 0.00 | 0.00 | 33 | 1017.4 |
| 20260906004304 | 29 | 249 | 1.6 | 3.2 | 0.00 | 0.00 | 0.00 | 33 | 1017.0 |
| 20260906003740 | 29 | 297 | 1.6 | 3.2 | 0.00 | 0.00 | 0.00 | 32 | 1017.4 |
| 20260906003216 | 30 | 231 | 0.0 | 3.2 | 0.00 | 0.00 | 0.00 | 32 | 1017.0 |
| 20260906002922 | 30 | 173 | 0.0 | 3.2 | 0.00 | 0.00 | 0.00 | 31 | 1017.0 |
| 20260906002412 | 30 | 250 | 0.0 | 3.2 | 0.00 | 0.00 | 0.00 | 31 | 1017.0 |
| 20260906002246 | 30 | 250 | 0.0 | 3.2 | 0.00 | 0.00 | 0.00 | 31 | 1017.0 |
| 20260906001630 | 30 | 227 | 0.0 | 8.0 | 0.00 | 0.00 | 0.00 | 30 | 1017.0 |
| 20260906001107 | 30 | 206 | 0.0 | 8.0 | 0.00 | 0.00 | 0.00 | 29 | 1017.0 |
| 20260906000746 | 30 | 203 | 0.0 | 0.0 | 0.00 | 0.00 | 0.00 | 29 | 1017.0 |
| 20260906000020 | 30 | 214 | 0.0 | 3.2 | 0.00 | 0.00 | 0.00 | 27 | 1016.7 |
| 20260905235952 | 31 | 213 | 0.0 | 3.2 | 0.00 | 0.00 | 0.00 | 28 | 1016.7 |
| 20260905235711 | 31 | 211 | 0.0 | 3.2 | 0.00 | 0.00 | 0.00 | 27 | 1017.0 |
| 20260905235000 | 31 | 228 | 0.0 | 3.2 | 0.00 | 0.00 | 0.00 | 28 | 1017.0 |
| 20260905234930 | 31 | 213 | 0.0 | 3.2 | 0.00 | 0.00 | 0.00 | 27 | 1017.0 |
| 20260905234341 | 31 | 205 | 0.0 | 0.0 | 0.00 | 0.00 | 0.00 | 28 | 1017.0 |
| 20260905233938 | 31 | 205 | 0.0 | 0.0 | 0.00 | 0.00 | 0.00 | 28 | 1017.0 |
| 20260905233815 | 31 | 202 | 0.0 | 0.0 | 0.00 | 0.00 | 0.00 | 27 | 1017.0 |
| 20260905233251 | 31 | 201 | 0.0 | 0.0 | 0.00 | 0.00 | 0.00 | 27 | 1016.7 |
| 20260905232916 | 32 | 220 | 0.0 | 3.2 | 0.00 | 0.00 | 0.00 | 27 | 1016.7 |
| 20260905232740 | 32 | 204 | 0.0 | 3.2 | 0.00 | 0.00 | 0.00 | 27 | 1016.7 |
| 20260905232240 | 32 | 201 | 0.0 | 3.2 | 0.00 | 0.00 | 0.00 | 26 | 1016.7 |
| 20260905231842 | 32 | 200 | 0.0 | 3.2 | 0.00 | 0.00 | 0.00 | 27 | 1016.7 |
| 20260905231707 | 32 | 200 | 0.0 | 3.2 | 0.00 | 0.00 | 0.00 | 26 | 1016.7 |
| 20260905231346 | 33 | 326 | 1.6 | 8.0 | 0.00 | 0.00 | 0.00 | 25 | 1016.7 |
| 20260905230834 | 33 | 207 | 0.0 | 8.0 | 0.00 | 0.00 | 0.00 | 25 | 1016.7 |
| 20260905230551 | 33 | 129 | 4.8 | 8.0 | 0.00 | 0.00 | 0.00 | 25 | 1016.7 |
| 20260905230028 | 34 | 201 | 0.0 | 3.2 | 0.00 | 0.00 | 0.00 | 25 | 1016.7 |
| 20260905225814 | 34 | 236 | 3.2 | 3.2 | 0.00 | 0.00 | 0.00 | 25 | 1016.7 |
| 20260905225503 | 34 | 197 | 0.0 | 3.2 | 0.00 | 0.00 | 0.00 | 25 | 1016.7 |
| 20260905225211 | 34 | 262 | 0.0 | 8.0 | 0.00 | 0.00 | 0.00 | 23 | 1016.7 |
| 20260905224752 | 34 | 194 | 0.0 | 8.0 | 0.00 | 0.00 | 0.00 | 24 | 1016.7 |
| 20260905224440 | 34 | 311 | 1.6 | 8.0 | 0.00 | 0.00 | 0.00 | 23 | 1016.7 |
| 20260905224150 | 34 | 217 | 0.0 | 8.0 | 0.00 | 0.00 | 0.00 | 23 | 1016.7 |
| 20260905223704 | 34 | 305 | 1.6 | 8.0 | 0.00 | 0.00 | 0.00 | 23 | 1016.7 |